Simultaneous Nadir Overpasses (SNOs) Predictions

Prediction of SNOs between AQUA and NPP Satellite Orbit:

Table of predicted SNOs for the next 14.0 days since TLE Epoch: 9/13/2013
Index Date (AQUA) Time (AQUA) Lat,Lon (AQUA) SZA (AQUA ) Date (NPP) Time (NPP) Lat,Lon (NPP) SZA (NPP ) Distance(km) Time Diff (sec)
1 09/15/2013 21:49:18 -74.59, -92.08 84.15 09/15/2013 21:49:01 -74.59, -92.11 84.13 0.97 17
2 09/15/2013 22:38:16 75.96, 79.32 94.36 09/15/2013 22:39:16 75.97, 79.37 94.29 1.61 60
3 09/18/2013 13:16:41 73.56,-146.21 97.90 09/18/2013 13:15:34 73.56,-146.23 97.97 0.85 67
4 09/18/2013 14:05:36 -75.24, 25.47 83.90 09/18/2013 14:05:45 -75.25, 25.54 83.93 1.93 9
5 09/21/2013 05:33:04 73.95, -29.48 98.44 09/21/2013 05:32:24 73.94, -29.54 98.50 2.30 40
6 09/21/2013 06:22:01 -75.52, 142.11 83.24 09/21/2013 06:22:37 -75.52, 142.14 83.29 1.02 36
7 09/23/2013 21:49:23 74.47, 87.62 98.84 09/23/2013 21:49:10 74.47, 87.56 98.87 1.80 13
8 09/23/2013 22:38:21 -75.97,-100.68 82.78 09/23/2013 22:39:24 -75.98,-100.61 82.85 2.13 63
9 09/26/2013 13:16:45 -73.58, 33.82 79.27 09/26/2013 13:15:42 -73.58, 33.81 79.21 0.27 63




NCC Satellite Simultaneous Nadir Overpasses (SNOs) Prediction Service
